• In Netherlands
  • List of Countries
  • For 7 days
  • Water Temperature
  • Satellite Maps
  • Weather Map
  • Weather Widgets
  • user-avatar
    Login

    Hourly Weather Kalat

    Today, 20 November, Monday

    Time Temperature Precipitation Wind Pressure Humidity
    00:00 -10°C° 0 mm 1 mps 471 mmHg 45%
    01:00 -10°C° 0 mm 1 mps 471 mmHg 45%
    02:00 -10°C° 0 mm 1 mps 471 mmHg 45%
    03:00 -10°C° 0 mm 1 mps 471 mmHg 43%
    04:00 -11°C° 0 mm 1 mps 471 mmHg 42%
    05:00 -11°C° 0 mm 1 mps 471 mmHg 41%
    06:00 -11°C° 0 mm 1 mps 471 mmHg 39%
    07:00 -10°C° 0 mm 1 mps 471 mmHg 37%
    08:00 -10°C° 0 mm 1 mps 472 mmHg 35%
    09:00 -9°C° 0 mm 1 mps 472 mmHg 28%
    10:00 -8°C° 0 mm 1 mps 473 mmHg 22%
    11:00 -7°C° 0 mm 1 mps 474 mmHg 15%
    12:00 -6°C° 0 mm 1 mps 474 mmHg 16%
    13:00 -6°C° 0 mm 1 mps 474 mmHg 18%
    14:00 -4°C° 0 mm 1 mps 474 mmHg 19%
    15:00 -6°C° 0 mm 1 mps 473 mmHg 24%
    16:00 -7°C° 0 mm 1 mps 473 mmHg 28%
    17:00 -8°C° 0 mm 1 mps 472 mmHg 32%
    18:00 -8°C° 0 mm 1 mps 472 mmHg 32%
    19:00 -9°C° 0 mm 1 mps 472 mmHg 31%
    20:00 -9°C° 0 mm 1 mps 472 mmHg 31%
    21:00 -9°C° 0 mm 1 mps 472 mmHg 30%
    22:00 -10°C° 0 mm 1 mps 472 mmHg 29%
    23:00 -10°C° 0 mm 1 mps 471 mmHg 28%

    Tomorrow, 21 November, Tuesday

    Time Temperature Precipitation Wind Pressure Humidity
    00:00 -10°C° 0 mm 1 mps 471 mmHg 26%
    01:00 -10°C° 0 mm 1 mps 471 mmHg 25%
    02:00 -10°C° 0 mm 1 mps 471 mmHg 24%
    03:00 -13°C° 0 mm 2 mps 470 mmHg 23%
    04:00 -13°C° 0 mm 2 mps 470 mmHg 22%
    05:00 -13°C° 0 mm 2 mps 470 mmHg 21%
    06:00 -13°C° 0 mm 2 mps 470 mmHg 20%
    07:00 -12°C° 0 mm 2 mps 471 mmHg 20%
    08:00 -12°C° 0 mm 2 mps 471 mmHg 20%
    09:00 -9°C° 0 mm 2 mps 472 mmHg 17%
    10:00 -7°C° 0 mm 1 mps 473 mmHg 15%
    11:00 -4°C° 0 mm 1 mps 474 mmHg 13%
    12:00 -4°C° 0 mm 1 mps 474 mmHg 14%
    13:00 -3°C° 0 mm 1 mps 474 mmHg 14%
    14:00 -3°C° 0 mm 1 mps 474 mmHg 15%
    15:00 -4°C° 0 mm 1 mps 473 mmHg 19%
    16:00 -6°C° 0 mm 1 mps 472 mmHg 23%
    17:00 -7°C° 0 mm 1 mps 472 mmHg 27%
    18:00 -7°C° 0 mm 1 mps 471 mmHg 26%
    19:00 -8°C° 0 mm 1 mps 471 mmHg 26%
    20:00 -8°C° 0 mm 1 mps 471 mmHg 25%
    21:00 -9°C° 0 mm 2 mps 471 mmHg 24%
    22:00 -9°C° 0 mm 2 mps 471 mmHg 22%
    23:00 -10°C° 0 mm 2 mps 471 mmHg 21%

    Day after tomorrow, 22 November, Wednesday

    Time Temperature Precipitation Wind Pressure Humidity
    00:00 -10°C° 0 mm 2 mps 471 mmHg 19%
    01:00 -10°C° 0 mm 2 mps 470 mmHg 18%
    02:00 -10°C° 0 mm 2 mps 470 mmHg 16%
    03:00 -10°C° 0 mm 2 mps 470 mmHg 16%
    04:00 -10°C° 0 mm 2 mps 470 mmHg 15%
    05:00 -10°C° 0 mm 2 mps 470 mmHg 14%
    06:00 -10°C° 0 mm 2 mps 470 mmHg 14%
    07:00 -10°C° 0 mm 2 mps 471 mmHg 14%
    08:00 -9°C° 0 mm 2 mps 471 mmHg 15%
    09:00 -8°C° 0 mm 2 mps 472 mmHg 14%
    10:00 -4°C° 0 mm 1 mps 474 mmHg 13%
    11:00 -2°C° 0 mm 1 mps 475 mmHg 12%
    12:00 -1°C° 0 mm 1 mps 475 mmHg 13%
    13:00 -1°C° 0 mm 1 mps 475 mmHg 14%
    14:00 0°C° 0 mm 1 mps 475 mmHg 14%
    15:00 -2°C° 0 mm 1 mps 474 mmHg 18%
    16:00 -3°C° 0 mm 1 mps 473 mmHg 22%
    17:00 -4°C° 0 mm 1 mps 472 mmHg 26%
    18:00 -6°C° 0 mm 1 mps 472 mmHg 26%
    19:00 -7°C° 0 mm 2 mps 472 mmHg 26%
    20:00 -7°C° 0 mm 2 mps 472 mmHg 26%
    21:00 -7°C° 0 mm 2 mps 472 mmHg 25%
    22:00 -8°C° 0 mm 2 mps 472 mmHg 25%
    23:00 -8°C° 0 mm 2 mps 472 mmHg 24%

    23 November, Thursday

    Time Temperature Precipitation Wind Pressure Humidity
    00:00 -8°C° 0 mm 2 mps 471 mmHg 24%
    01:00 -8°C° 0 mm 2 mps 471 mmHg 23%
    02:00 -8°C° 0 mm 2 mps 471 mmHg 22%
    03:00 -8°C° 0 mm 2 mps 471 mmHg 21%
    04:00 -8°C° 0 mm 2 mps 470 mmHg 21%
    05:00 -8°C° 0 mm 2 mps 470 mmHg 20%
    06:00 -8°C° 0 mm 2 mps 470 mmHg 19%
    07:00 -8°C° 0 mm 2 mps 471 mmHg 19%
    08:00 -8°C° 0 mm 2 mps 471 mmHg 18%
    09:00 -6°C° 0 mm 2 mps 472 mmHg 17%
    10:00 -4°C° 0 mm 2 mps 474 mmHg 16%
    11:00 -2°C° 0 mm 2 mps 475 mmHg 15%
    12:00 -2°C° 0 mm 2 mps 475 mmHg 16%
    13:00 -2°C° 0 mm 2 mps 475 mmHg 16%
    14:00 -2°C° 0 mm 2 mps 475 mmHg 17%
    15:00 -3°C° 0 mm 2 mps 474 mmHg 21%
    16:00 -2°C° 0 mm 1 mps 473 mmHg 25%
    17:00 -4°C° 0 mm 1 mps 472 mmHg 29%
    18:00 -4°C° 0 mm 1 mps 472 mmHg 30%
    19:00 -4°C° 0 mm 1 mps 472 mmHg 30%
    20:00 -7°C° 0 mm 2 mps 472 mmHg 30%
    21:00 -7°C° 0 mm 2 mps 472 mmHg 30%
    22:00 -7°C° 0 mm 2 mps 472 mmHg 31%
    23:00 -7°C° 0 mm 2 mps 472 mmHg 31%

    24 November, Friday

    Time Temperature Precipitation Wind Pressure Humidity
    00:00 -7°C° 0 mm 2 mps 472 mmHg 33%
    01:00 -7°C° 0 mm 2 mps 472 mmHg 35%
    02:00 -7°C° 0 mm 2 mps 472 mmHg 37%
    03:00 -7°C° 0 mm 2 mps 472 mmHg 40%
    04:00 -7°C° 0 mm 2 mps 472 mmHg 42%
    05:00 -6°C° 0 mm 1 mps 472 mmHg 44%
    06:00 -6°C° 0 mm 1 mps 472 mmHg 45%
    07:00 -6°C° 0 mm 1 mps 472 mmHg 46%
    08:00 -6°C° 0 mm 1 mps 472 mmHg 47%
    09:00 -4°C° 0 mm 1 mps 473 mmHg 44%
    10:00 -3°C° 0 mm 1 mps 474 mmHg 42%
    11:00 -3°C° 0 mm 2 mps 475 mmHg 39%
    12:00 -3°C° 0 mm 2 mps 475 mmHg 39%
    13:00 -3°C° 0 mm 2 mps 475 mmHg 39%
    14:00 -2°C° 0 mm 2 mps 475 mmHg 38%
    15:00 -3°C° 0 mm 2 mps 475 mmHg 42%
    16:00 -4°C° 0 mm 2 mps 474 mmHg 45%
    17:00 -2°C° 0 mm 1 mps 474 mmHg 49%
    18:00 -3°C° 0 mm 1 mps 473 mmHg 50%
    19:00 -5°C° 0 mm 2 mps 473 mmHg 51%
    20:00 -6°C° 0 mm 2 mps 473 mmHg 51%
    21:00 -6°C° 0 mm 2 mps 473 mmHg 53%
    22:00 -6°C° 0 mm 2 mps 473 mmHg 55%
    23:00 -6°C° 0 mm 2 mps 473 mmHg 57%

    25 November, Saturday

    Time Temperature Precipitation Wind Pressure Humidity
    00:00 -6°C° 0.1 mm 2 mps 473 mmHg 59%
    01:00 -6°C° 0.1 mm 2 mps 473 mmHg 62%
    02:00 -7°C° 0.1 mm 2 mps 472 mmHg 65%
    03:00 -7°C° 0.1 mm 2 mps 472 mmHg 67%
    04:00 -6°C° 0.1 mm 1 mps 472 mmHg 69%
    05:00 -6°C° 0.1 mm 1 mps 472 mmHg 71%
    06:00 -6°C° 0.1 mm 1 mps 472 mmHg 72%
    07:00 -6°C° 0.1 mm 1 mps 472 mmHg 72%
    08:00 -6°C° 0.1 mm 1 mps 473 mmHg 73%
    09:00 -6°C° 0.1 mm 1 mps 473 mmHg 70%
    10:00 -4°C° 0.1 mm 1 mps 473 mmHg 67%
    11:00 -4°C° 0.1 mm 1 mps 474 mmHg 64%
    12:00 -6°C° 0.1 mm 2 mps 474 mmHg 64%
    13:00 -5°C° 0.1 mm 2 mps 474 mmHg 63%
    14:00 -5°C° 0.1 mm 2 mps 473 mmHg 63%
    15:00 -6°C° 0.1 mm 2 mps 473 mmHg 67%
    16:00 -6°C° 0.1 mm 2 mps 473 mmHg 70%
    17:00 -6°C° 0.1 mm 1 mps 473 mmHg 73%
    18:00 -6°C° 0.1 mm 1 mps 473 mmHg 74%
    19:00 -6°C° 0.1 mm 1 mps 473 mmHg 75%
    20:00 -7°C° 0.1 mm 1 mps 473 mmHg 76%
    21:00 -7°C° 0 mm 1 mps 473 mmHg 76%
    22:00 -7°C° 0 mm 1 mps 473 mmHg 76%
    23:00 -8°C° 0 mm 1 mps 473 mmHg 76%
    Show more